Regional Weather Roundup
Issued by NWS Jackson, KY

Home | Current Version | Previous Version | Graphics & Text | Print | Product List | Glossary On
Versions: 1 2 3 4 5 6 7 8 9 10 11 12 13 14 15 16 17 18 19 20 21 22 23 24 25 26 27 28 29 30 31 32 33 34 35 36 37 38 39 40 41 42 43 44 45 46 47 48 49
000
ASUS43 KJKL 031010
RWRJKL

EAST KENTUCKY HOURLY WEATHER ROUNDUP
NATIONAL WEATHER SERVICE JACKSON KY
500 AM EST TUE MAR 03 2015

NOTE: "FAIR" INDICATES FEW OR NO CLOUDS BELOW 12,000 FEET WITH
NO SIGNIFICANT WEATHER AND/OR OBSTRUCTIONS TO VISIBILITY.

* THESE REPORTS ARE NOT UNDER NWS QUALITY CONTROL AND MAY NOT
  REPORT WEATHER SUCH AS PRECIPITATION AND FOG.

KYZ079-080-083-085-087-088-110-112-115-119-120-031100
...EASTERN KENTUCKY...

CITY           SKY/WX    TMP DP  RH WIND       PRES   REMARKS
JACKSON        CLOUDY    31  19  61 CALM      30.17R
LONDON         CLOUDY    36  22  56 CALM      30.16S
SOMERSET*      CLOUDY    34  23  64 SE6       30.15F WCI  29
MONTICELLO*    CLOUDY    37  29  73 CALM      30.16F
MIDDLESBORO*   CLOUDY    39  31  75 CALM      30.18S
HAZARD APT*    PTSUNNY   32  23  69 CALM      30.17R
BLACK MTN*       N/A     39  34  81 S9          N/A  WCI  33
PIKEVILLE APT* MOCLDY    30  21  69 N3        30.16R
BIG SANDY*     CLOUDY    31  22  68 E3        30.17S
MOREHEAD APT*  CLOUDY    30  18  59 VRB6      30.19F WCI  24
$$

KYZ035-036-041-042-044-050-067-078-099-031100
...CENTRAL KENTUCKY...

CITY           SKY/WX    TMP DP  RH WIND       PRES   REMARKS
MT STERLING*   CLOUDY    32  21  64 SE7       30.18F WCI  26
FLEMING/MASON* PTCLDY    28  19  69 E6        30.19F WCI  22
DANVILLE*      CLOUDY    32  27  80 E5        30.14F WCI  27
RICHMOND*      CLOUDY    32  23  69 E5        30.15F WCI  27
LEXINGTON      MIX PCPN  31  21  66 E5        30.17F WCI  26
FRANKFORT      CLOUDY    30  20  66 E7        30.14F WCI  23
$$

KYZ091>093-OHZ055-061-077-WVZ005-015-034-035-042-031100
...SOUTHERN OHIO/WEST VIRGINIA...

CITY           SKY/WX    TMP DP  RH WIND       PRES   REMARKS
COVINGTON      CLOUDY    28  17  63 E7        30.18F WCI  21
COLUMBUS       CLOUDY    25  13  60 SE3       30.24S
DAYTON         CLOUDY    25  15  66 SE12      30.19F WCI  14
WILMINGTON     MOCLDY    23  15  71 E6        30.18F WCI  16
HUNTINGTON     CLOUDY    29  21  72 N3        30.21R
CHARLESTON     CLOUDY    30  20  66 NE3       30.18F
PINEVILLE*     CLOUDY    32  29  87 MISG      30.22R
BECKLEY        CLOUDY    34  15  46 SE12G26   30.15F WCI  25
BLUEFIELD      CLOUDY    38  17  42 SE14G28   30.17F WCI  30
$$

VAZ002-007-008-TNZ017-027-036-066-071-031100
...SOUTHWEST VIRGINIA/EAST TENNESSEE...

CITY           SKY/WX    TMP DP  RH WIND       PRES   REMARKS
WISE*          CLOUDY    37  27  65 SW8       30.16R WCI  31
JONESVILLE*    CLOUDY    34  32  93 CALM      30.21S
ABINGDON*      CLOUDY    38  25  59 E7        30.18S WCI  33
BRISTOL        CLOUDY    38  30  73 CALM      30.18F
KNOXVILLE      CLOUDY    41  36  82 CALM      30.19S
OAK RIDGE      LGT RAIN  42  34  73 CALM      30.21R
CROSSVILLE     CLOUDY    43  41  93 VRB5      30.15F FOG
NASHVILLE      CLOUDY    44  35  70 S6        30.13F
$$

...KEY TO REMARKS...
VSB - VISIBILITY IN MILES
WCI - WIND CHILL INDEX
HX  - HEAT INDEX

$$



USA.gov is the U.S. government's official web portal to all federal, state and local government web resources and services.